Regional Weather Roundup
Issued by NWS Green Bay, WI

Home | Current Version | Previous Version | Text Only | Print | Product List | Glossary On
Versions: 1 2 3 4 5 6 7 8 9 10 11 12 13 14 15 16 17 18 19 20 21 22 23 24 25 26 27 28 29 30 31 32 33 34 35 36 37 38 39 40 41 42 43 44 45 46 47 48 49 50
000
ASUS43 KGRB 041310
RWRGRB

NORTH-CENTRAL AND NORTHEAST WISCONSIN REGIONAL WEATHER ROUNDUP
NATIONAL WEATHER SERVICE GREEN BAY WI
700 AM CST WED MAR 04 2015

WIZ005-009-010>012-018-019-041400-
NORTH CENTRAL WISCONSIN

CITY           SKY/WX    TMP DP  RH WIND       PRES   REMARKS
IRONWOOD       CLEAR     -4  -9  77 W14       29.93R WCI -24
MANITOWISH WTR CLEAR     -7 -12  76 W9        29.91R WCI -24
ARBOR VITAE    CLEAR     -3 -10  72 W6        29.91S WCI -15
EAGLE RIVER    CLEAR     -4 -12  68 W10G16    29.89R WCI -21
LAND O LAKES   CLEAR     -3  -9  77 W5        29.88S WCI -14
RHINELANDER    CLEAR     -4 -12  68 W9        29.91R WCI -20
PHILLIPS       CLEAR     -6 -12  75 W3        29.96R
ANTIGO         CLEAR     -2 -10  70 NW13      29.93R WCI -21
TOMAHAWK       CLEAR     -4 -12  70 CALM      29.95R
MERRILL        CLEAR     -2 -11  64 NW7       29.97R WCI -15
$$

WIZ013-073-041400-
NORTHEAST WISCONSIN

CITY           SKY/WX    TMP DP  RH WIND       PRES   REMARKS
IRON MOUNTAIN  CLEAR      2  -7  66 W9        29.88R WCI -13
MARINETTE      CLEAR      9  -6  52 NW8       29.95R WCI  -4
OCONTO         CLEAR      8  -4  60 NW7       29.98R WCI  -4
$$

WIZ017-030-035>037-045-041400-
CENTRAL WISCONSIN

CITY           SKY/WX    TMP DP  RH WIND       PRES   REMARKS
MEDFORD        CLEAR     -3  -8  79 W12       29.97R WCI -21
WAUSAU         CLEAR      0  -8  69 NW8       29.98R WCI -14
MOSINEE        CLEAR      0  -6  78 W10       29.99R WCI -17
MARSHFIELD     CLEAR      1  -8  66 W12       30.01R WCI -16
WISC RAPIDS    CLEAR      3  -7  63 W12       30.06R WCI -13
STEVENS POINT  CLEAR      1  -6  73 W10       30.02R WCI -16
WAUPACA        CLEAR      7  -5  56 W12G20    30.03R WCI  -8
SHAWANO        CLEAR      8  -4  57 W8G17     29.99R WCI  -4
CLINTONVILLE   CLEAR      7  -4  61 W10       30.01R WCI  -8
$$

WIZ038-039-048-051-041400-
FOX VALLEY

CITY           SKY/WX    TMP DP  RH WIND       PRES   REMARKS
NWS GREEN BAY  CLEAR      9   0  67 W12       29.99R WCI  -6
APPLETON       MOCLDY     7  -4  61 W15       30.00R WCI -11
OSHKOSH        PTCLDY     8  -3  61 W17G24    30.03R WCI -10
FOND DU LAC    CLEAR     10  -1  61 W12       30.03R WCI  -5
$$

WIZ022-050-052-041400-
EAST CENTRAL WISCONSIN

CITY           SKY/WX    TMP DP  RH WIND       PRES   REMARKS
STURGEON BAY   PTCLDY     7  -4  61 W9        29.97R WCI  -7
MANITOWOC      CLEAR     11   4  73 W13       30.00R WCI  -4
SHEBOYGAN      PTCLDY    11   1  64 W14       30.01R WCI  -5
$$

LMZ563-521-522-541>543-041400-
LAKESHORE

STATION/POSITION TIME  TEMP    WIND        PRES    VSBY  WAVE
                       AIR SEA DIR/SP/G                  HT/PER
                 (UTC) (F)     (DEG/KT/KT) (MB)    (MI)  (FT/S)
SHEBOYGAN LKSHOR 1300   13     290/ 13/ 16 1017.6R
KEWAUNEE LKSHORE 1300   11     310/  6/ 14 1014.1R
NORTHPORT PIER   1300   10     280/  8/ 19 1014.2R
SISTER BAY LKSHO 1200    8     300/ 13/ 15   N/A
CHAMBERS ISLAND  1300    8     300/  2/ 11 1014.6R
MENOMINEE LKSHOR 1300    9     270/  9     1015.1R
$$


USA.gov is the U.S. government's official web portal to all federal, state and local government web resources and services.